sat.trackr.live / text

‹ back to catalog

FLOCK 4H-12

NORAD 66715 · 2025-276BB

PAYLOAD ACTIVE UNKNOWN

§ Identity

Operator
Country
US
Launch date
2025-11-28
Launch site
AFWTR
Launch vehicle
Mass (kg)
RCS (m²)

Purposes: earth_obs

External: N2YO · Heavens-Above · Gunter

§ Orbital elements

Epoch: 2026-05-25T03:43:55.867008Z

Period
94.73 min
Inclination
97.4192°
Eccentricity
0.0003367
Mean motion
15.20165930 rev/d
Perigee alt
503.0 km
Apogee alt
507.7 km
Semi-major
6,883.5 km
B*
2.8803e-4
RAAN
219.2087°
Arg perigee
70.0199°
Mean anomaly
290.1398°
Rev number
2,724

§ Raw data

FLOCK 4H-121 66715U 25276BB  26145.15550772  .00006167  00000+0  28803-3 0  99902 66715  97.4192 219.2087 0003367  70.0199 290.1398 15.20165930 27242

JSON: /api/v1/satellites/66715 · /tle

For live sub-satellite position, see the globe view (requires WebGL).

§ Visibility from observer

Set your observer location to see the next 7 days of passes ≥ 10°. The values pass through the URL so the page stays shareable.

No JS? Fill the form by hand. The geolocation button needs JavaScript.